Flag for Germany Weather past 2 weeks in Kerpen, North Rhine-Westphalia, Germany

Now
68 °F

Scattered clouds.


Feels Like: 68 °F
Forecast: 54 / 68 °F
Wind: 5 mph from West

Location: Noervenich

Current Time: Sep 30, 2014 at 4:16:25 PM

Latest Report: Sep 30, 2014 at 3:20 PM


Visibility: N/A

Pressure: 30.27 "Hg

Humidity: 69%

Dew point: 57 °F

Location of KerpenLocation

Historic Weather in Kerpen — Graph

°F

Kerpen temperature yesterday

Maximum temperature yesterday: 72 °F (at 12:20 PM)
Minimum temperature yesterday: 55 °F (at 7:20 AM)
Average temperature yesterday: 62 °F

Past Weeks' High & Low Weather Summary

 TemperatureHumidityPressure
High77 °F (Sep 19, 2:20 PM)100% (Sep 16, 6:20 AM)30.39 "Hg (Sep 16, 6:20 AM)
Low45 °F (Sep 23, 5:20 AM)48% (Sep 23, 4:20 PM)29.83 "Hg (Sep 18, 4:20 AM)
Average60 °F82%30.07 "Hg
* Reported Sep 15 2:20 PM — Sep 30 2:20 PM, Kerpen, Weather by CustomWeather, © 2014

Note: Actual official high and low records may vary slightly from our data, if they occured in-between our weather recording intervals... More about our weather records

Advertising

Kerpen weather history for previous 24 hours

 ConditionsComfort  
Time TempWeatherWind HumidityBarometerVisibility
2:20 PM
Sep 30
66 °FScattered clouds.6 mph73%30.27 "HgN/A
1:20 PM66 °FScattered clouds.5 mph78%30.30 "HgN/A
12:20 PM66 °FBroken clouds.7 mph73%30.27 "HgN/A
11:20 AM64 °FPartly sunny.6 mph83%30.27 "HgN/A
10:20 AM63 °FBroken clouds.2 mph94%30.27 "HgN/A
9:20 AM61 °FBroken clouds.No wind94%30.27 "HgN/A
8:20 AM59 °FPassing clouds.1 mph94%30.24 "HgN/A
7:20 AM59 °FPassing clouds.No wind94%30.24 "HgN/A
6:20 AM59 °FPartly cloudy.1 mph94%30.24 "HgN/A
5:20 AM57 °FPassing clouds.1 mph100%30.21 "HgN/A
4:20 AM57 °FPassing clouds.2 mph100%30.21 "Hg5 mi
3:20 AM55 °FFog.No wind100%30.21 "Hg3 mi
2:20 AM57 °FFog.2 mph94%30.21 "HgN/A
1:20 AM59 °FPassing clouds.1 mph94%30.21 "HgN/A
12:20 AM59 °FPartly cloudy.2 mph100%30.21 "HgN/A
11:20 PM
Sep 29
59 °FPassing clouds.1 mph100%30.21 "HgN/A
10:20 PM59 °FPassing clouds.2 mph100%30.21 "HgN/A
9:20 PM59 °FLight rain. Passing clouds.1 mph94%30.21 "HgN/A
8:20 PM59 °FLight rain. Partly cloudy.2 mph100%30.24 "Hg5 mi
7:20 PM61 °FRain. Broken clouds.2 mph94%30.21 "Hg4 mi
6:20 PM63 °FRain showers. Broken clouds.2 mph88%30.21 "Hg3 mi
5:20 PM66 °FLight rain. Partly sunny.7 mph73%30.21 "HgN/A
4:20 PM68 °FPartly sunny.9 mph69%30.21 "HgN/A
Weather by CustomWeather, © 2014

See weather overviewHow to use our weather pages